FW0153 Weather Reports


time (UTC)temp
C
wind
direction
speed
KPH
gust
KPH
rain 1hr
cm
rain 24hr
cm
rain mn
cm
humidity
%
barometer
mb
20260508054005 21 149 6.4 0.0 0.00 0.05 0.00 95 1015.7
20260508053505 21 181 20.9 0.0 0.00 0.05 0.00 95 1015.7
20260508053004 21 176 14.5 0.0 0.13 0.05 0.00 95 1015.4
20260508052505 21 203 6.4 0.0 0.13 0.05 0.00 95 1014.4
20260508052005 21 106 0.0 0.0 0.00 0.03 0.00 95 1013.7
20260508051712 21 134 6.4 0.0 0.18 0.03 0.00 95 1013.3
20260508051008 21 76 0.0 0.0 0.18 0.03 0.00 95 1013.3
20260508050712 21 58 6.4 0.0 0.00 0.00 0.00 95 1013.7
20260508045712 21 46 6.4 0.0 0.00 0.00 0.00 95 1014.4
20260508045005 21 115 0.0 0.0 0.00 0.00 0.00 95 1014.0
20260508044504 21 76 0.0 0.0 0.00 0.00 0.00 95 1014.0
20260508044005 21 54 0.0 0.0 0.00 0.00 0.00 94 1013.7
20260508043505 21 144 6.4 0.0 0.00 0.00 0.00 94 1013.7
20260508043005 21 99 0.0 0.0 0.00 0.00 0.00 94 1014.0
20260508042505 21 105 6.4 0.0 0.00 0.00 0.00 94 1014.0
20260508042005 21 59 6.4 0.0 0.00 0.00 0.00 94 1014.0
20260508041505 21 49 0.0 0.0 0.00 0.00 0.00 93 1014.4
20260508041005 21 81 0.0 0.0 0.00 0.00 0.00 93 1014.4
20260508040505 21 88 6.4 0.0 0.00 0.00 0.00 93 1014.4
20260508040005 21 109 6.4 0.0 0.00 0.00 0.00 93 1014.4
20260508035505 21 64 0.0 0.0 0.00 0.00 0.00 93 1014.0
20260508035005 21 351 6.4 0.0 0.00 0.00 0.00 93 1014.4
20260508034505 21 323 20.9 0.0 0.00 0.00 0.00 93 1014.4
20260508034005 21 58 37.0 0.0 0.00 0.00 0.00 92 1014.0
20260508033713 21 31 6.4 0.0 0.00 0.00 0.00 92 1014.4
20260508033005 21 39 6.4 0.0 0.00 0.00 0.00 92 1014.4
20260508032505 21 34 6.4 0.0 0.00 0.00 0.00 92 1014.4
20260508032004 21 68 6.4 0.0 0.00 0.00 0.00 92 1014.4
20260508031505 21 70 6.4 0.0 0.00 0.00 0.00 91 1014.4
20260508031005 21 286 14.5 0.0 0.00 0.00 0.00 91 1014.0
20260508030505 21 320 6.4 0.0 0.00 0.00 0.00 91 1014.0
20260508030005 21 113 14.5 0.0 0.00 0.00 0.00 91 1014.0
20260508025505 21 46 6.4 0.0 0.00 0.00 0.00 91 1013.7
20260508025005 21 41 20.9 0.0 0.00 0.00 0.00 90 1014.0
20260508024505 21 302 20.9 0.0 0.00 0.00 0.00 90 1014.0
20260508024005 21 24 14.5 0.0 0.00 0.00 0.00 90 1013.7
20260508023713 21 277 29.0 0.0 0.00 0.00 0.00 90 1014.0
20260508023005 21 28 6.4 0.0 0.00 0.00 0.00 90 1014.4
20260508022505 21 47 20.9 0.0 0.00 0.00 0.00 89 1014.4
20260508022005 21 301 20.9 0.0 0.00 0.00 0.00 89 1014.0
20260508021505 21 6 6.4 0.0 0.00 0.00 0.00 89 1014.0
20260508021005 21 355 20.9 0.0 0.00 0.00 0.00 89 1013.7
20260508020504 21 302 20.9 0.0 0.00 0.00 0.00 89 1014.0
20260508020005 21 54 29.0 0.0 0.00 0.00 0.00 89 1014.0
20260508015505 21 342 20.9 0.0 0.00 0.00 0.00 89 1014.0
20260508015005 21 16 14.5 0.0 0.00 0.00 0.00 89 1013.7
20260508014505 21 247 14.5 0.0 0.00 0.00 0.00 89 1013.3
20260508014005 21 331 29.0 0.0 0.00 0.00 0.00 89 1013.3
20260508013505 21 31 20.9 0.0 0.00 0.00 0.00 89 1013.7
20260508013006 21 44 14.5 0.0 0.00 0.00 0.00 88 1013.3
20260508012505 21 20 29.0 0.0 0.00 0.00 0.00 89 1013.3
20260508012005 21 349 14.5 0.0 0.00 0.00 0.00 89 1013.7
20260508011505 21 80 14.5 0.0 0.00 0.00 0.00 88 1013.3
20260508011211 21 25 20.9 0.0 0.00 0.00 0.00 88 1013.3
20260508010505 21 29 14.5 0.0 0.00 0.00 0.00 88 1013.3
20260508010005 21 15 6.4 0.0 0.00 0.00 0.00 87 1013.0
20260508005505 21 342 20.9 0.0 0.00 0.00 0.00 87 1012.7
20260508005213 22 31 20.9 0.0 0.00 0.00 0.00 86 1012.7
20260508004504 22 1 14.5 0.0 0.00 0.00 0.00 86 1013.0
20260508004005 22 16 6.4 0.0 0.00 0.00 0.00 86 1013.0
20260508003505 22 17 37.0 0.0 0.00 0.00 0.00 86 1012.7
20260508003213 22 67 20.9 0.0 0.00 0.00 0.00 86 1013.0
20260508002505 22 36 14.5 0.0 0.00 0.00 0.00 86 1013.0
20260508002004 22 302 37.0 0.0 0.00 0.00 0.00 85 1013.3
20260508001505 22 29 6.4 0.0 0.00 0.00 0.00 85 1013.3
20260508001005 22 304 51.5 0.0 0.00 0.00 0.00 85 1013.3
20260508000712 22 345 43.5 0.0 0.00 0.00 0.00 84 1013.0
20260508000005 22 343 14.5 0.0 0.00 0.00 0.00 84 1012.7
20260507235505 22 38 37.0 0.0 0.00 0.00 0.00 84 1012.3
20260507235005 22 301 6.4 0.0 0.00 0.00 0.00 84 1012.7
20260507234505 22 63 37.0 0.0 0.00 0.00 0.00 84 1012.3
20260507234005 22 309 37.0 0.0 0.00 0.00 0.00 84 1012.3
20260507233505 22 29 43.5 0.0 0.00 0.00 0.00 83 1012.3
20260507233005 22 333 20.9 0.0 0.00 0.00 0.00 82 1012.3
20260507232711 23 345 37.0 0.0 0.00 0.00 0.00 82 1012.3
20260507232005 23 294 14.5 0.0 0.00 0.00 0.00 82 1012.0
20260507231505 23 27 14.5 0.0 0.00 0.00 0.00 82 1012.0
20260507231212 22 64 6.4 0.0 0.00 0.00 0.00 82 1012.0
20260507230713 23 83 6.4 0.0 0.00 0.00 0.00 82 1012.3
20260507230212 23 80 20.9 0.0 0.00 0.00 0.00 82 1012.3
20260507225505 23 38 29.0 0.0 0.00 0.00 0.00 82 1012.3
20260507225212 23 8 14.5 0.0 0.00 0.00 0.00 82 1012.3
20260507224505 23 87 29.0 0.0 0.00 0.00 0.00 82 1012.3
20260507224005 23 43 14.5 0.0 0.00 0.00 0.00 81 1012.3
20260507223505 23 322 14.5 0.0 0.00 0.00 0.00 82 1012.7
20260507223005 23 40 29.0 0.0 0.00 0.00 0.00 82 1012.7
20260507222505 23 37 6.4 0.0 0.00 0.00 0.00 82 1012.3
20260507222005 23 32 37.0 0.0 0.00 0.00 0.00 81 1012.7
20260507221505 23 329 37.0 0.0 0.00 0.00 0.00 81 1012.3
20260507221005 23 333 14.5 0.0 0.00 0.00 0.00 81 1012.3
20260507220505 23 15 6.4 0.0 0.00 0.00 0.00 81 1012.3
20260507220212 23 359 29.0 0.0 0.00 0.00 0.00 80 1012.3
20260507215505 23 41 29.0 0.0 0.00 0.00 0.00 81 1012.3
20260507215212 23 41 20.9 0.0 0.00 0.00 0.00 82 1012.7
20260507214505 23 151 6.4 0.0 0.00 0.00 0.00 81 1012.7
20260507214005 23 37 37.0 0.0 0.00 0.00 0.00 81 1012.7
20260507213505 23 32 6.4 0.0 0.00 0.00 0.00 81 1012.7
20260507213005 23 18 43.5 0.0 0.00 0.00 0.00 81 1012.3
20260507212504 23 331 29.0 0.0 0.00 0.00 0.00 80 1012.7
20260507212005 23 321 37.0 0.0 0.00 0.00 0.00 80 1012.7
20260507211505 23 340 43.5 0.0 0.00 0.00 0.00 80 1012.7
20260507211005 24 357 20.9 0.0 0.00 0.00 0.00 77 1012.7
20260507210505 24 21 14.5 0.0 0.00 0.00 0.00 78 1012.7
20260507210006 24 137 20.9 0.0 0.00 0.00 0.00 76 1012.7
20260507205505 23 31 6.4 0.0 0.00 0.00 0.00 78 1013.0
20260507205004 23 319 20.9 0.0 0.00 0.00 0.00 79 1013.0
20260507204505 23 53 14.5 0.0 0.00 0.00 0.00 79 1013.0
20260507204005 24 102 29.0 0.0 0.00 0.00 0.00 78 1013.3
20260507203505 24 12 20.9 0.0 0.00 0.00 0.00 77 1013.3
20260507203005 25 72 6.4 0.0 0.00 0.00 0.00 76 1013.3
20260507202505 25 65 14.5 0.0 0.00 0.00 0.00 76 1013.3
20260507202005 24 31 51.5 0.0 0.00 0.00 0.00 76 1013.3
20260507201505 24 78 14.5 0.0 0.00 0.00 0.00 76 1013.7
20260507201213 24 29 29.0 0.0 0.00 0.00 0.00 77 1013.7
20260507200505 24 5 20.9 0.0 0.00 0.00 0.00 77 1013.7
20260507200213 24 1 29.0 0.0 0.00 0.00 0.00 77 1013.3
20260507195505 24 28 43.5 0.0 0.00 0.00 0.00 77 1013.7
20260507195213 25 2 14.5 0.0 0.00 0.00 0.00 76 1014.0
20260507194712 24 93 14.5 0.0 0.00 0.00 0.00 78 1014.0
20260507194005 23 35 20.9 0.0 0.00 0.00 0.00 78 1014.0
20260507193504 23 28 29.0 0.0 0.00 0.00 0.00 79 1014.0
20260507193005 24 341 14.5 0.0 0.00 0.00 0.00 79 1014.0
20260507192505 23 37 20.9 0.0 0.00 0.00 0.00 79 1014.0
20260507192213 23 287 6.4 0.0 0.00 0.00 0.00 79 1014.4
20260507191505 24 325 29.0 0.0 0.00 0.00 0.00 78 1014.0
20260507191213 25 50 14.5 0.0 0.00 0.00 0.00 77 1014.4
20260507190712 25 333 37.0 0.0 0.00 0.00 0.00 78 1014.0
20260507190006 24 13 29.0 0.0 0.00 0.00 0.00 78 1014.4
20260507185505 25 30 29.0 0.0 0.00 0.00 0.00 77 1014.4
20260507185005 24 17 6.4 0.0 0.00 0.00 0.00 79 1014.4
20260507184505 24 233 29.0 0.0 0.00 0.00 0.00 78 1014.4
20260507184005 24 302 20.9 0.0 0.00 0.00 0.00 79 1014.4
20260507183714 23 39 29.0 0.0 0.00 0.00 0.00 80 1014.4
20260507183005 23 15 20.9 0.0 0.00 0.00 0.00 81 1014.7
20260507182505 23 294 14.5 0.0 0.00 0.00 0.00 82 1015.0
20260507182005 23 350 20.9 0.0 0.00 0.00 0.00 83 1014.7
20260507181505 23 4 20.9 0.0 0.00 0.00 0.00 83 1015.0
20260507181005 23 308 14.5 0.0 0.00 0.00 0.00 83 1015.0
20260507180505 23 309 14.5 0.0 0.00 0.00 0.00 84 1015.0
20260507180004 23 341 29.0 0.0 0.00 0.00 0.00 84 1015.4
20260507175505 22 304 37.0 0.0 0.00 0.00 0.00 85 1015.0
20260507175005 22 90 6.4 0.0 0.00 0.00 0.00 87 1015.0
20260507174505 22 37 6.4 0.0 0.00 0.00 0.00 86 1015.0
20260507174005 22 350 20.9 0.0 0.00 0.00 0.00 86 1015.0
20260507173505 22 318 20.9 0.0 0.00 0.00 0.00 87 1015.0
20260507173005 22 35 20.9 0.0 0.00 0.00 0.00 86 1015.4
20260507172505 22 16 6.4 0.0 0.00 0.00 0.00 86 1015.4
20260507172005 22 16 6.4 0.0 0.00 0.00 0.00 86 1015.0
20260507171505 22 314 14.5 0.0 0.00 0.00 0.00 86 1015.4
20260507171005 23 31 14.5 0.0 0.00 0.00 0.00 86 1015.0
20260507170505 23 27 14.5 0.0 0.00 0.00 0.00 85 1015.0
20260507170005 23 40 6.4 0.0 0.00 0.00 0.00 85 1015.4
20260507165505 23 16 20.9 0.0 0.00 0.00 0.00 85 1015.4
20260507165005 23 62 0.0 0.0 0.00 0.00 0.00 86 1015.0
20260507164504 23 11 20.9 0.0 0.00 0.00 0.00 85 1015.0
20260507164005 23 288 14.5 0.0 0.00 0.00 0.00 85 1015.0
20260507163505 23 78 0.0 0.0 0.00 0.00 0.00 86 1015.0
20260507163212 22 32 20.9 0.0 0.00 0.00 0.00 86 1015.0
20260507162505 22 294 14.5 0.0 0.00 0.00 0.00 86 1015.0
20260507162004 22 9 29.0 0.0 0.00 0.00 0.00 86 1015.4
20260507161505 22 66 14.5 0.0 0.00 0.00 0.00 86 1015.0
20260507161212 22 325 14.5 0.0 0.00 0.00 0.00 87 1015.0
20260507160505 22 8 6.4 0.0 0.00 0.00 0.00 88 1015.0
20260507160005 22 25 14.5 0.0 0.00 0.00 0.00 88 1015.0
20260507155713 22 329 29.0 0.0 0.00 0.00 0.00 88 1015.0
20260507155212 22 56 0.0 0.0 0.00 0.00 0.00 88 1015.0
20260507154505 22 26 6.4 0.0 0.00 0.00 0.00 88 1014.7
20260507154006 22 328 29.0 0.0 0.00 0.00 0.00 88 1014.7